RH
84 87 84 83 79 80 79 80 84 81 80 86 90 90 90 95 96 94 96 96 94 90 86 84 83 81 81 85 85 78 55 52 53 49 68 93 94 99 99 96 89 91 92
87 87 84 85 78 78 78 79 82 84 88 89 91 93 92 93 93 95 95 97 94 92 87 86 83 82 80 81 75 56 66 66 60 52 42 65 80 87 85 72 87 90 86
80 90 90 86 80 81 81 83 84 83 86 85 84 87 93 95 96 96 96 96 95 94 88 87 81 83 84 78 56 68 60 58 63 60 53 39 54 78 75 76 86 86 87
80 88 89 77 80 86 86 85 85 85 86 85 78 79 82 92 96 96 95 96 97 97 89 85 85 90 81 60 69 74 78 82 83 78 74 82 80 83 79 90 96 96 90
87 88 82 78 85 85 85 86 85 86 84 81 76 74 74 90 96 93 95 94 95 88 79 84 90 90 69 60 75 76 78 80 75 78 84 89 93 96 95 94 97 97 90
87 85 84 83 84 83 84 86 88 84 83 82 78 77 69 77 92 96 93 81 96 81 72 83 93 84 56 59 72 72 73 80 74 75 84 94 94 96 97 89 93 96 95
87 83 86 84 84 85 85 88 87 83 83 82 79 80 79 74 95 87 70 81 95 80 74 80 81 64 57 58 68 71 72 70 70 72 77 91 92 92 92 91 95 92 96
83 82 86 85 86 86 87 89 86 84 83 78 77 80 77 76 84 81 74 84 92 92 75 77 70 68 63 57 67 69 71 66 71 64 72 88 90 88 88 93 93 94 95
77 78 84 88 86 87 88 87 84 83 80 76 76 85 75 79 73 72 76 83 93 86 78 78 66 66 64 60 61 68 69 72 73 72 72 85 87 88 89 91 90 91 92
75 72 81 89 91 92 94 88 86 83 80 78 77 86 79 79 77 76 81 82 92 88 82 75 67 55 64 62 61 68 67 73 74 76 74 80 89 90 91 91 90 90 91
82 78 89 91 91 94 94 92 87 84 78 79 78 78 80 80 82 80 74 80 83 87 84 76 67 48 62 63 60 65 67 70 76 74 70 71 88 92 90 88 89 88 88
90 86 76 79 89 94 92 95 90 88 86 78 76 78 71 78 80 82 82 83 86 85 81 72 61 46 56 62 61 64 64 65 67 65 69 63 92 93 89 86 87 88 88
82 82 80 77 81 85 87 87 87 89 83 76 74 75 70 70 69 77 86 85 86 86 79 69 57 52 56 61 58 62 62 60 56 54 62 61 86 89 85 84 86 87 86
82 77 69 72 82 87 78 80 78 81 76 73 76 74 72 76 70 76 76 82 84 82 79 69 52 50 68 69 65 60 60 56 55 55 56 61 74 85 82 81 83 84 86
77 78 76 71 76 82 77 74 76 74 74 74 76 76 73 76 62 65 68 70 78 80 70 64 51 49 68 72 65 60 58 52 49 50 56 60 67 75 79 78 81 81 83
76 80 75 68 60 62 66 63 65 70 71 79 80 77 70 66 58 58 61 63 61 67 64 66 67 65 68 68 60 56 53 50 48 46 47 59 67 72 74 77 77 78 79
73 76 76 70 62 59 58 58 59 66 67 61 71 77 68 65 63 59 55 60 62 66 67 66 67 71 71 68 60 53 52 50 48 48 55 67 72 78 72 74 74 74 75
72 70 70 67 68 69 64 59 56 54 53 53 54 65 64 64 64 60 52 56 61 66 65 62 67 67 67 66 64 52 51 49 47 48 56 69 71 68 73 68 72 72 70
73 75 72 65 65 68 75 67 61 58 55 54 54 55 57 61 64 63 54 52 54 60 62 62 63 65 66 64 64 56 47 46 44 48 51 63 69 65 63 67 65 67 69
66 72 76 75 64 62 71 78 77 64 62 60 58 58 60 61 63 65 63 52 53 57 60 62 63 64 66 64 59 57 49 43 43 47 51 52 58 62 57 52 56 58 55
60 67 76 81 76 72 68 75 79 78 67 65 65 63 63 63 63 65 65 62 54 55 56 60 62 64 67 67 59 53 50 45 43 45 48 49 51 53 55 53 50 52 50
56 63 68 79 80 79 76 72 76 76 78 76 73 68 67 66 65 65 65 65 61 56 56 57 61 64 66 67 60 57 64 54 46 45 44 46 47 50 50 51 52 52 50
28 34 42 55 70 80 86 88 85 85 82 86 84 82 74 74 69 67 67 66 65 59 56 57 59 63 67 69 62 57 84 79 64 49 47 43 44 46 50 49 49 49 47
38 33 30 30 32 50 80 93 94 94 96 85 70 72 72 80 86 78 71 69 68 65 61 60 60 63 68 72 72 60 55 61 70 64 48 48 44 44 48 49 48 47 47
37 34 32 30 31 33 36 83 95 95 90 79 70 67 69 71 75 83 92 83 77 71 68 67 68 68 69 73 73 71 66 65 60 61 66 54 48 47 49 48 57 50 45
45 39 35 33 33 34 34 35 38 51 63 63 86 96 87 82 81 77 75 77 91 83 81 79 76 77 74 76 76 74 70 70 76 64 68 61 62 53 52 54 49 44 39
Wind_Speed
30 29 25 24 23 23 23 21 19 18 18 16 15 15 15 15 15 15 15 16 16 16 16 16 15 15 16 15 14 14 16 19 18 17 16 17 16 17 18 16 14 13 13
35 30 27 25 24 23 22 21 19 19 18 17 15 14 14 14 14 14 14 15 16 16 16 16 15 15 16 15 16 18 19 20 20 19 16 16 15 15 14 12 11 12 12
36 30 27 26 25 24 23 22 20 19 17 15 14 13 13 13 13 13 13 14 15 16 16 15 15 15 15 15 19 19 18 16 14 14 16 14 14 12 12 12 12 11 12
37 31 28 28 26 25 23 22 21 20 18 16 12 7 9 11 12 12 12 12 15 15 15 15 16 15 15 18 19 18 17 16 16 14 12 14 14 12 13 13 11 10 12
34 30 29 28 27 25 23 21 20 20 17 15 11 10 9 10 9 10 12 11 16 14 15 16 15 15 17 19 18 17 18 17 14 15 13 14 18 15 16 15 20 16 14
32 30 30 28 26 25 23 22 20 19 18 18 15 11 9 8 12 11 12 13 17 14 14 15 15 15 16 17 16 17 16 18 16 14 19 18 19 19 17 16 17 19 16
31 28 28 27 26 25 23 22 20 18 16 16 15 16 11 10 13 13 13 15 17 13 14 14 14 14 14 15 14 14 14 14 15 14 15 16 16 14 13 12 13 13 13
33 30 28 26 25 25 23 22 20 16 15 14 14 15 14 13 17 14 13 16 16 15 13 12 12 12 12 13 14 13 13 11 13 9 10 14 13 13 12 12 12 13 13
30 30 28 26 24 24 23 22 18 16 14 12 13 17 19 18 14 12 15 17 16 15 12 11 11 11 12 13 14 13 13 13 11 11 12 12 12 11 11 11 11 11 12
27 28 28 26 25 24 24 21 19 17 14 13 13 19 19 18 15 13 18 16 14 13 11 10 10 11 11 12 13 13 12 13 10 10 10 10 10 11 11 10 11 11 11
26 29 28 26 24 25 23 21 19 16 15 13 11 15 17 19 18 14 17 16 15 12 11 10 10 11 11 12 13 14 10 5 9 8 8 7 10 10 10 9 10 10 10
27 27 25 26 25 24 22 23 19 17 17 15 11 10 15 17 17 16 14 14 13 12 11 10 10 11 12 11 12 12 11 10 10 6 6 6 10 10 9 9 9 10 9
30 29 27 25 25 25 25 24 21 20 18 15 13 10 14 15 16 16 17 15 14 13 13 12 12 13 12 11 10 12 10 9 10 7 6 5 9 10 10 9 10 9 9
23 25 28 26 28 28 23 26 23 23 21 20 17 14 18 18 19 17 17 17 16 16 14 13 13 13 14 11 8 9 7 12 11 9 7 6 8 10 10 10 10 9 9
19 13 22 27 27 31 28 23 23 23 22 22 19 18 20 19 22 18 17 15 18 17 16 14 14 16 14 11 13 10 11 12 10 10 9 9 9 9 10 10 10 9 9
19 16 18 19 30 27 25 19 20 22 21 23 22 19 22 24 20 15 17 15 15 15 16 14 14 15 14 12 14 13 15 13 12 11 11 12 11 11 10 11 11 10 10
22 21 19 18 24 26 24 20 18 24 21 18 19 22 23 24 20 15 19 20 14 14 15 15 15 16 18 17 16 14 15 14 14 14 13 15 13 13 12 13 13 12 12
23 25 23 23 22 21 22 23 22 20 21 21 16 20 23 21 20 18 19 20 18 19 18 17 20 18 20 18 18 18 17 16 15 17 15 16 15 15 15 16 16 15 14
25 26 25 23 28 23 18 23 22 20 21 20 21 22 23 22 23 22 23 23 22 22 22 22 21 21 20 20 19 17 17 18 17 19 19 19 18 17 16 17 19 18 17
23 22 27 25 23 31 24 19 17 20 21 21 22 23 22 23 25 26 25 25 25 25 25 25 25 24 22 22 19 19 18 20 20 20 21 22 21 20 19 19 22 22 20
25 20 26 31 28 24 30 25 21 19 20 23 24 23 23 25 26 28 28 26 27 27 28 27 27 25 24 23 19 17 19 21 24 24 24 24 25 23 22 22 22 23 22
27 29 25 24 27 28 26 32 31 28 23 20 23 25 27 27 28 29 30 30 29 29 28 29 29 28 26 25 15 5 2 9 24 27 27 28 26 26 27 25 24 24 23
20 23 22 24 21 28 27 25 23 22 25 25 26 25 26 26 30 32 32 32 32 31 32 33 33 32 27 26 29 12 2 5 3 15 32 31 31 29 30 29 27 26 24
12 13 13 11 12 14 23 28 28 25 20 27 28 33 34 29 23 25 33 34 34 36 34 35 34 35 32 29 28 35 23 4 4 2 8 26 29 29 29 28 27 25 24
8 7 7 8 6 6 8 15 23 24 24 22 23 24 24 23 25 29 24 24 28 34 34 33 34 34 37 30 32 26 32 22 12 3 3 4 22 23 24 26 26 25 24
7 3 2 5 6 9 9 4 6 9 12 10 17 24 24 22 20 19 19 20 25 26 27 31 30 31 35 38 31 35 29 15 17 6 2 3 4 7 16 22 25 24 20
Wind_Direction
156 158 160 157 152 148 145 144 141 139 137 133 130 120 116 113 109 108 106 105 103 99 94 92 89 92 94 94 94 94 92 89 88 86 94 100 90 80 96 97 86 81 76
157 159 158 156 153 148 146 145 143 143 141 138 130 123 119 115 115 113 108 112 110 101 99 96 94 93 93 94 93 96 97 92 89 82 88 101 102 95 91 85 88 81 78
157 157 157 155 151 149 146 145 144 143 141 135 129 122 120 115 114 113 113 118 120 108 104 99 97 96 96 95 98 99 96 89 85 80 84 84 92 91 87 84 81 83 79
156 157 158 156 152 149 147 145 144 142 136 129 126 129 123 119 119 121 120 126 129 116 108 102 102 98 101 103 103 96 88 83 89 93 101 84 81 92 90 80 66 92 82
154 157 158 157 154 154 150 147 144 141 140 132 128 134 133 124 124 124 125 131 139 124 111 106 105 99 104 106 105 97 88 88 92 88 91 99 80 100 89 77 70 98 84
154 160 159 158 158 155 151 150 150 147 141 138 139 143 138 129 126 128 134 138 145 125 114 111 110 106 108 113 112 97 91 97 92 92 97 95 85 86 87 86 80 85 90
154 158 160 160 160 156 155 155 154 148 146 150 155 152 148 151 138 139 132 139 144 132 123 115 115 112 115 118 116 102 102 100 91 88 95 93 88 83 83 87 87 90 85
156 160 161 163 161 160 159 158 155 152 150 151 153 148 147 129 151 144 140 142 145 137 127 121 123 120 119 124 124 107 104 113 109 100 101 101 91 87 89 88 85 86 82
154 159 164 164 164 164 163 162 160 156 153 149 146 147 141 141 147 149 145 150 146 143 140 134 134 135 129 129 131 114 97 117 118 121 114 106 98 97 96 98 96 92 88
154 160 162 164 165 165 165 165 163 160 154 147 144 156 151 143 142 146 146 155 155 152 149 150 149 151 142 138 137 131 117 106 128 129 122 120 112 109 106 104 101 100 93
154 162 161 163 167 167 167 170 166 163 156 148 147 165 166 156 153 159 162 165 166 165 164 164 163 160 156 149 147 143 137 132 156 138 128 131 121 119 114 111 108 104 99
154 162 165 168 168 170 172 170 171 168 166 165 162 160 178 175 171 169 168 176 176 178 178 177 175 168 166 162 161 155 143 144 156 159 149 142 133 130 125 121 118 115 110
161 164 170 170 173 176 178 175 178 177 176 178 189 190 182 174 180 186 180 191 190 190 189 188 183 179 170 164 168 164 161 170 176 202 179 166 147 143 140 139 134 130 125
168 179 175 182 180 180 181 180 183 185 190 192 199 191 181 189 189 192 198 202 204 200 200 199 195 184 182 184 176 175 188 182 191 198 203 198 171 156 154 152 150 144 139
178 179 190 192 196 186 183 181 188 191 198 200 198 194 192 199 192 198 205 212 213 211 212 201 198 191 191 205 196 207 200 195 197 200 206 212 199 179 168 166 165 161 158
198 193 181 172 184 177 174 176 189 196 199 204 204 195 192 195 202 211 209 212 203 203 204 201 197 194 200 202 208 213 200 197 217 214 219 212 215 210 186 178 180 177 175
207 204 198 176 164 179 183 191 195 193 189 198 200 194 195 201 208 212 210 213 209 202 208 212 217 223 225 210 214 212 213 215 221 229 221 217 216 222 210 190 191 190 189
204 202 202 202 181 174 182 188 197 199 202 204 201 190 193 206 212 211 211 212 209 208 211 219 215 223 205 213 216 217 221 225 224 230 223 221 224 225 219 207 199 197 197
204 202 201 204 206 198 194 186 194 201 203 203 206 211 216 216 215 215 215 215 213 212 215 218 219 223 217 215 219 218 216 220 220 218 232 230 223 230 229 221 214 204 200
192 194 200 198 199 213 214 202 194 202 206 209 209 216 216 220 223 224 223 220 217 217 219 218 222 223 227 222 218 223 225 228 227 225 224 234 232 227 228 224 221 220 214
200 192 195 197 199 203 213 218 217 207 205 211 212 219 222 225 225 225 228 227 224 224 225 223 222 223 222 218 213 221 229 229 235 233 231 225 230 233 230 224 228 228 224
188 198 197 203 207 205 210 211 214 212 211 209 211 215 221 227 227 226 228 228 228 227 229 229 224 223 225 214 201 171 248 248 236 235 234 232 228 226 230 232 231 227 230
194 184 183 197 205 215 216 215 212 222 230 229 221 218 217 223 226 228 231 231 230 228 231 231 228 225 225 216 214 195 157 227 210 231 231 232 231 229 227 232 232 232 232
122 142 159 174 183 192 215 219 211 205 207 227 235 233 232 225 225 227 231 233 235 232 232 236 234 230 224 221 217 220 229 172 193 294 242 234 232 234 232 229 233 235 233
113 123 147 177 182 177 136 199 211 215 228 240 247 250 249 247 247 244 232 232 238 241 235 239 240 234 232 226 222 226 228 235 236 149 253 262 225 232 232 227 230 229 227
94 91 206 223 235 246 239 200 195 212 231 244 251 246 246 245 240 236 241 251 250 241 242 243 247 244 241 237 232 229 224 222 230 196 171 210 214 221 220 220 217 208 198